[[{"header":{"parameterUnit":"m.s-1","parameterCategory":1,"la1":30.2991,"la2":30.254,"lo1":-89.0895,"lo2":-89.0444,"dy":0.0017,"dx":0.0017,"nx":28,"ny":28,"refTime":"2024-08-31T03:00:00:Z","depth":0,"parameterNumber":2,"parameterNumberName":"U-component_of_WINDS"},"data":[0,0,0,0,0,0,0,0,0,0,0,0,0,0,0,0,0,0,0,0,0,0,0,0,0,0,0,0,0,0,0,0,0,0,0,0,0,0,0,0,0,0,0,0,0,0,0,0,0,0,0,0,0,0,0,0,0,0,-3.5417,-3.5416,0,-3.5376,-3.5375,-3.5375,-3.5229,-3.5225,-3.5222,-3.5219,-3.518,-3.5182,-3.5184,0,0,0,0,0,0,0,0,0,0,0,0,0,-3.537,-3.5372,-3.5417,-3.5416,-3.5416,-3.5376,-3.5375,-3.5375,-3.5229,-3.5225,-3.5221,-3.5217,-3.5179,-3.5181,-3.5184,0,0,0,0,0,0,0,0,0,0,0,0,0,-3.5366,-3.5372,-3.5417,-3.5338,-3.5331,-3.5376,-3.5375,-3.5375,-3.523,-3.5225,-3.522,-3.5215,-3.5178,-3.5181,-3.5184,-3.5303,0,0,-3.5194,-3.5195,0,0,0,0,0,0,0,0,-3.5367,-3.5368,-3.535,-3.5344,-3.5335,-3.5302,-3.5344,-3.5351,-3.5231,-3.5268,-3.5219,-3.5213,-3.5225,-3.5224,-3.5227,-3.5301,-3.5299,-3.5194,-3.5196,-3.5197,-3.5198,0,0,0,0,0,0,0,-3.5367,-3.5369,-3.54,-3.535,-3.5341,-3.5305,-3.5299,-3.5345,-3.5275,-3.5265,-3.5254,-3.5251,-3.522,-3.5224,-3.5225,-3.5299,-3.5194,-3.5197,-3.5198,-3.52,-3.5467,-3.5472,0,0,0,0,0,0,-3.5378,-3.537,-3.5402,-3.5399,-3.5339,-3.531,-3.5304,-3.5318,-3.5274,-3.5263,-3.5255,-3.5244,-3.5221,-3.5221,-3.5223,-3.5357,-3.5197,-3.52,-3.5202,-3.5462,-3.5468,-3.5474,0,0,0,0,0,0,-3.5378,-3.5382,-3.5403,-3.5382,-3.5382,-3.5316,-3.5334,-3.532,-3.5324,-3.5267,-3.5254,-3.5273,-3.5218,-3.5219,-3.5284,-3.5354,-3.5201,-3.5204,-3.5456,-3.5464,-3.5471,-3.5628,0,0,0,0,0,0,-3.5377,-3.5383,-3.5427,-3.5384,-3.5383,-3.5464,-3.5338,-3.5323,-3.5329,-3.5315,-3.528,-3.5269,-3.5214,-3.528,-3.5287,-3.5355,-3.5207,-3.5449,-3.5459,-3.5469,-3.5616,-3.564,-3.566,0,0,0,0,0,-3.5376,-3.5474,-3.543,-3.5435,-3.5437,-3.5469,-3.5468,-3.5402,-3.5336,-3.5379,-3.5343,-3.527,-3.5346,-3.5288,-3.5294,-3.5365,-3.5444,-3.5456,-3.5468,-3.5606,-3.5635,-3.566,0,0,0,0,0,0,-3.5528,-3.5467,-3.5417,-3.5504,-3.5493,-3.5444,-3.5497,-3.5435,-3.5443,-3.5429,-3.5347,-3.534,-3.5417,-3.5398,-3.5334,-3.5477,-3.5383,-3.5397,-3.5486,-3.5513,-3.5535,-3.5536,-3.5209,0,0,0,0,0,-3.5571,-3.5601,-3.5547,-3.5629,-3.5625,-3.5563,-3.5574,-3.5524,-3.5509,-3.5503,-3.5471,-3.5461,-3.5481,-3.5497,-3.5513,-3.5614,-3.5603,-3.5666,-3.5688,-3.5706,-3.5718,-3.5768,-3.5795,-3.5513,-3.5513,-3.5512,0,0,-3.5661,-3.5632,-3.5656,-3.5658,-3.5643,-3.5676,-3.5559,-3.56,-3.5624,-3.551,-3.5567,-3.5545,-3.5527,-3.561,-3.5645,-3.5597,-3.5794,-3.5722,-3.5737,-3.5738,-3.5783,-3.581,-3.5834,-3.5521,-3.5519,-3.5518,0,0,-3.5841,-3.5823,-3.5887,-3.5875,-3.5854,-3.5812,-3.5828,-3.5789,-3.5768,-3.5826,-3.574,-3.5769,-3.5807,-3.5797,-3.5797,-3.5975,-3.5908,-3.5983,-3.6098,-3.6148,-3.617,-3.619,-3.6251,-3.6274,-3.5996,-3.5996,-3.5997,0,-3.5955,-3.6001,-3.5929,-3.5974,-3.5977,-3.5876,-3.594,-3.5933,-3.5919,-3.5923,-3.587,-3.5914,-3.5896,-3.5974,-3.6017,-3.6022,-3.6037,-3.5985,-3.6173,-3.6192,-3.6208,-3.6266,-3.6289,-3.6005,-3.6004,-3.6003,-3.6003,0,-3.6141,-3.6175,-3.623,-3.6217,-3.6227,-3.6283,-3.6219,-3.6238,-3.6188,-3.6152,-3.6212,-3.6186,-3.6194,-3.621,-3.6162,-3.6282,-3.6252,-3.6188,-3.6091,-3.6245,-3.6298,-3.6319,-3.6018,-3.6015,-3.6012,-3.601,0,0,-3.6412,-3.636,-3.6381,-3.6373,-3.6343,-3.6368,-3.6419,-3.6426,-3.6443,-3.6439,-3.6478,-3.6514,-3.6453,-3.6454,-3.6404,-3.6449,-3.6588,-3.6378,-3.6376,-3.6415,-3.6716,-3.6763,-3.6789,-3.6546,-3.6549,-3.6553,-3.6717,0,-3.6581,-3.6663,-3.66,-3.6693,-3.6722,-3.6628,-3.6672,-3.6659,-3.6628,-3.6648,-3.6614,-3.6639,-3.6559,-3.6558,-3.6598,-3.6563,-3.6647,-3.6551,-3.6581,-3.6582,-3.6584,-3.6817,-3.6866,-3.7022,-3.6737,-3.6741,-3.6743,0,-3.6787,-3.6789,-3.6885,-3.6848,-3.6858,-3.6899,-3.69,-3.6922,-3.6905,-3.6879,-3.6881,-3.6819,-3.6867,-3.6776,-3.684,-3.6776,-3.6785,-3.677,-3.6775,-3.6772,-3.6669,-3.6817,-3.707,-3.7092,-3.6775,-3.6772,-3.677,0,-3.6971,-3.6999,-3.7059,-3.7056,-3.7015,-3.7046,-3.7031,-3.7009,-3.7018,-3.702,-3.7024,-3.7033,-3.7038,-3.7046,-3.6989,-3.6928,-3.7061,-3.6964,-3.7039,-3.7041,-3.7068,-3.7066,-3.7322,-3.7081,-3.708,-3.708,-3.7079,0,-3.7163,-3.7225,-3.7141,-3.7178,-3.7244,-3.7173,-3.7241,-3.7216,-3.7198,-3.7229,-3.7149,-3.718,-3.7104,-3.7128,-3.7084,-3.7143,-3.7147,-3.7126,-3.7113,-3.7131,-3.7133,-3.7133,-3.712,-3.7086,-3.7085,-3.7083,-3.7082,0,-3.7377,-3.7324,-3.7383,-3.734,-3.7331,-3.7381,-3.7344,-3.7377,-3.7341,-3.7381,-3.7386,-3.733,-3.7353,-3.7299,-3.7315,-3.7285,-3.7368,-3.734,-3.7373,-3.7363,-3.744,-3.7432,-3.7702,-3.7732,-3.7475,-3.7478,-3.748,0,-3.7501,-3.7546,-3.7508,-3.7522,-3.751,-3.7535,-3.7543,-3.7476,-3.7487,-3.7472,-3.7507,-3.7524,-3.7532,-3.7575,-3.7536,-3.7548,-3.7516,-3.7611,-3.7518,-3.7534,-3.7514,-3.751,-3.7514,-3.7628,-3.7632,-3.7634,-3.7636,0,-3.7726,-3.7697,-3.7711,-3.7716,-3.7727,-3.7728,-3.7724,-3.7741,-3.7669,-3.7686,-3.7708,-3.7716,-3.7732,-3.7749,-3.7752,-3.7737,-3.7675,-3.7667,-3.7684,-3.77,-3.7716,-3.7705,-3.7422,-3.7659,-3.7657,-3.7655,-3.7654,-3.7653,-3.7896,-3.793,-3.7908,-3.7926,-3.7916,-3.7914,-3.7942,-3.791,-3.7927,-3.7933,-3.7894,-3.7924,-3.7908,-3.7905,-3.7897,-3.792,-3.7878,-3.7904,-3.7909,-3.7916,-3.7927,-3.7716,-3.7921,-3.7921,-3.792,-3.7919,-3.7919,0,-3.8113,-3.8094,-3.8112,-3.8107,-3.8122,-3.8063,-3.8055,-3.8071,-3.8099,-3.8088,-3.8099,-3.8125,-3.8141,-3.8105,-3.8116,-3.8142,-3.8113,-3.8147,-3.8142,-3.8139,-3.7966,-3.7948,-3.8169,-3.8169,-3.8169,-3.8169,-3.8169,-3.8169,-3.8227,-3.8282,-3.8251,-3.8301,-3.8282,-3.831,-3.8311,-3.8309,-3.8299,-3.8331,-3.8344,-3.832,-3.8299,-3.8308,-3.8321,-3.831,-3.8317,-3.8359,-3.8338,-3.8176,-3.8152,-3.8128,-3.8111,-3.8362,-3.8362,-3.8508,-3.851,-3.8511]},{"header":{"parameterUnit":"m.s-1","parameterCategory":1,"la1":30.2991,"la2":30.254,"lo1":-89.0895,"lo2":-89.0444,"dy":0.0017,"dx":0.0017,"nx":28,"ny":28,"refTime":"2024-08-31T03:00:00:Z","depth":0,"parameterNumber":3,"parameterNumberName":"V-component_of_WINDS"},"data":[0,0,0,0,0,0,0,0,0,0,0,0,0,0,0,0,0,0,0,0,0,0,0,0,0,0,0,0,0,0,0,0,0,0,0,0,0,0,0,0,0,0,0,0,0,0,0,0,0,0,0,0,0,0,0,0,0,0,0.479,0.4789,0,0.4718,0.4717,0.4716,0.462,0.4618,0.4617,0.4615,0.4541,0.4541,0.4541,0,0,0,0,0,0,0,0,0,0,0,0,0,0.4847,0.4846,0.479,0.4789,0.4788,0.4718,0.4717,0.4716,0.462,0.4618,0.4616,0.4615,0.4542,0.4541,0.454,0,0,0,0,0,0,0,0,0,0,0,0,0,0.4803,0.4846,0.479,0.4732,0.4726,0.4718,0.4717,0.4715,0.4621,0.4618,0.4616,0.4614,0.4542,0.4541,0.454,0.4583,0,0,0.4538,0.4538,0,0,0,0,0,0,0,0,0.4806,0.4801,0.4742,0.4736,0.4729,0.4675,0.4709,0.4671,0.4621,0.4661,0.4615,0.4613,0.4588,0.4583,0.4575,0.458,0.4577,0.4538,0.4538,0.4537,0.4537,0,0,0,0,0,0,0,0.4809,0.4804,0.4761,0.4741,0.4733,0.471,0.4701,0.4702,0.4639,0.4657,0.465,0.4643,0.4584,0.4576,0.4572,0.4575,0.4538,0.4537,0.4537,0.4537,0.4613,0.4615,0,0,0,0,0,0,0.482,0.4807,0.4764,0.4759,0.4763,0.4711,0.4701,0.4695,0.4638,0.4627,0.4645,0.4639,0.4578,0.4573,0.457,0.4616,0.4537,0.4537,0.4536,0.4611,0.4614,0.4616,0,0,0,0,0,0,0.4822,0.4818,0.4766,0.4781,0.4773,0.4712,0.4707,0.4695,0.4686,0.4629,0.4617,0.4648,0.4576,0.4571,0.4581,0.4613,0.4536,0.4536,0.4608,0.4612,0.4615,0.4711,0,0,0,0,0,0,0.4824,0.4819,0.4834,0.4782,0.4772,0.4779,0.4709,0.4695,0.4685,0.4676,0.4629,0.4619,0.4574,0.4582,0.458,0.461,0.4535,0.4605,0.4609,0.4614,0.4704,0.4717,0.4728,0,0,0,0,0,0.4826,0.4863,0.4835,0.483,0.479,0.4781,0.4775,0.4723,0.4688,0.4703,0.4667,0.462,0.461,0.4584,0.4581,0.4611,0.4602,0.4608,0.4613,0.4699,0.4715,0.4728,0,0,0,0,0,0,0.492,0.4856,0.4823,0.4845,0.4819,0.4765,0.4782,0.4741,0.4725,0.4717,0.4653,0.4643,0.4662,0.4637,0.461,0.465,0.4599,0.4604,0.4665,0.468,0.4691,0.4697,0.4534,0,0,0,0,0,0.4944,0.4941,0.4885,0.4909,0.4898,0.4843,0.4837,0.4799,0.477,0.4758,0.4722,0.4696,0.4687,0.4682,0.467,0.4701,0.4689,0.472,0.4732,0.4742,0.4747,0.4762,0.4776,0.4635,0.4635,0.4634,0,0,0.4991,0.4956,0.4958,0.4927,0.4903,0.4902,0.4834,0.4836,0.4835,0.4758,0.4766,0.4739,0.4705,0.4727,0.4734,0.4707,0.4784,0.4749,0.4758,0.4757,0.477,0.4783,0.4795,0.4638,0.4638,0.4637,0,0,0.5078,0.5051,0.5068,0.5046,0.501,0.4973,0.4978,0.493,0.4909,0.4916,0.4859,0.4857,0.4842,0.4821,0.4808,0.4889,0.4846,0.4887,0.4949,0.4965,0.4976,0.4986,0.5015,0.5026,0.4893,0.4893,0.4893,0,0.5142,0.5138,0.5083,0.5088,0.5077,0.5008,0.5026,0.5007,0.497,0.4963,0.4934,0.4915,0.4887,0.4903,0.4923,0.4915,0.4918,0.4892,0.4979,0.4988,0.4996,0.5024,0.5035,0.4898,0.4898,0.4897,0.4897,0,0.5219,0.5218,0.5236,0.5202,0.5193,0.5205,0.5152,0.5149,0.5113,0.508,0.5088,0.5053,0.5033,0.5034,0.4999,0.5045,0.503,0.4991,0.4938,0.5016,0.5041,0.5051,0.4906,0.4904,0.4902,0.4901,0,0,0.5361,0.5297,0.5305,0.5289,0.5246,0.5244,0.5254,0.5235,0.5234,0.5211,0.5218,0.5208,0.5172,0.5158,0.5119,0.5133,0.5201,0.5092,0.509,0.5114,0.5251,0.5281,0.5294,0.5172,0.5174,0.5175,0.5254,0,0.544,0.5452,0.5403,0.5428,0.5427,0.5362,0.5371,0.5345,0.5315,0.531,0.5276,0.5271,0.5223,0.5214,0.5225,0.519,0.5227,0.5184,0.5178,0.5178,0.5188,0.5306,0.5337,0.5413,0.5263,0.5265,0.5266,0,0.5532,0.5515,0.554,0.5497,0.5494,0.5503,0.5482,0.5478,0.5448,0.5425,0.5411,0.5367,0.5374,0.5324,0.5333,0.5305,0.53,0.5282,0.5284,0.5281,0.5227,0.5307,0.5436,0.5448,0.528,0.5279,0.5278,0,0.5634,0.5617,0.563,0.5618,0.5568,0.5575,0.5555,0.5523,0.5515,0.5498,0.5492,0.5476,0.5467,0.5456,0.5409,0.5377,0.5424,0.537,0.5406,0.5407,0.5418,0.5418,0.5548,0.5415,0.5415,0.5415,0.5415,0,0.5726,0.5744,0.5675,0.5683,0.5702,0.5646,0.5666,0.5639,0.5612,0.5614,0.5558,0.5561,0.5499,0.5496,0.546,0.5473,0.547,0.5452,0.5442,0.5456,0.5459,0.5452,0.5445,0.5418,0.5417,0.5417,0.5416,0,0.5842,0.5797,0.5807,0.5759,0.5747,0.5763,0.5722,0.5728,0.5695,0.5699,0.5696,0.5645,0.5638,0.559,0.5573,0.5548,0.5576,0.5556,0.5586,0.5579,0.5618,0.5615,0.5748,0.5763,0.5621,0.5622,0.5624,0,0.5904,0.5917,0.5871,0.5868,0.585,0.5847,0.5839,0.5785,0.578,0.5748,0.5758,0.5747,0.5736,0.5728,0.5689,0.5676,0.5655,0.5703,0.5653,0.5668,0.5656,0.5656,0.5657,0.5714,0.5715,0.5717,0.5718,0,0.6019,0.5996,0.5987,0.5971,0.5964,0.5948,0.5929,0.5931,0.5871,0.5868,0.5861,0.5852,0.5835,0.5825,0.5805,0.5784,0.5742,0.5734,0.5742,0.5757,0.5774,0.5766,0.5615,0.5731,0.573,0.5729,0.5728,0.5728,0.6109,0.6118,0.6087,0.608,0.606,0.6044,0.6048,0.6016,0.6009,0.5991,0.596,0.5958,0.5929,0.5899,0.5882,0.5879,0.5854,0.5865,0.5868,0.5871,0.5879,0.5775,0.5876,0.5875,0.5875,0.5874,0.5874,0,0.6221,0.6199,0.6193,0.6168,0.6163,0.6124,0.6101,0.6099,0.6098,0.6075,0.6065,0.6058,0.6049,0.601,0.5997,0.6003,0.5983,0.6001,0.6,0.5996,0.5902,0.5897,0.6017,0.6017,0.6017,0.6017,0.6017,0.6017,0.6279,0.6292,0.6266,0.6269,0.6246,0.6244,0.6235,0.622,0.6202,0.6196,0.6188,0.6163,0.6134,0.6119,0.6109,0.6098,0.6095,0.612,0.6103,0.6016,0.6002,0.5989,0.5984,0.612,0.612,0.6196,0.6197,0.6198]}]]